EZY76FD EGCC-EGHQ

Flight info

Callsign EZY76FD
Flight time 0h 45m
Altitude 23000
Route KUXEM P17 BEPHE/N0363F220 DCT OSSEP/N0357F210 P17 ZESPE/N0353F200 N92 EXMOR
Aircraft A319/M-SDE2E3FGIJ1RWXYZ/LB1

Departure

Time 2026-05-09 11:15
Airport Manchester Airport (EGCC)

Arrival

Time 2026-05-09 12:01
Airport Cornwall Airport Newquay (EGHQ)
Time Latitude Longitude Altitude Speed Heading
2026-05-09 11:00 53.36684 -2.28473 247 ft 0 kts 135°
2026-05-09 11:04 53.36687 -2.28478 247 ft 3 kts 136°
2026-05-09 11:04 53.36707 -2.28506 247 ft 4 kts 152°
2026-05-09 11:04 53.36732 -2.28521 247 ft 4 kts 175°
2026-05-09 11:04 53.36757 -2.28517 247 ft 4 kts 208°
2026-05-09 11:05 53.36769 -2.28504 247 ft 0 kts 225°
2026-05-09 11:07 53.36759 -2.28520 247 ft 4 kts 225°
2026-05-09 11:08 53.36725 -2.28576 247 ft 9 kts 225°
2026-05-09 11:08 53.36678 -2.28654 247 ft 10 kts 224°
2026-05-09 11:08 53.36641 -2.28745 247 ft 9 kts 251°
2026-05-09 11:08 53.36594 -2.28783 247 ft 9 kts 152°
2026-05-09 11:09 53.36538 -2.28688 247 ft 14 kts 134°
2026-05-09 11:09 53.36460 -2.28556 247 ft 17 kts 135°
2026-05-09 11:09 53.36383 -2.28477 247 ft 11 kts 178°
2026-05-09 11:09 53.36313 -2.28438 247 ft 11 kts 138°
2026-05-09 11:10 53.36245 -2.28325 247 ft 17 kts 135°
2026-05-09 11:10 53.36153 -2.28169 247 ft 19 kts 135°
2026-05-09 11:10 53.36059 -2.28012 247 ft 19 kts 135°
2026-05-09 11:10 53.35968 -2.27870 247 ft 14 kts 146°
2026-05-09 11:11 53.35872 -2.27837 247 ft 14 kts 154°
2026-05-09 11:11 53.35803 -2.27715 247 ft 15 kts 131°
2026-05-09 11:11 53.35714 -2.27630 247 ft 15 kts 159°
2026-05-09 11:11 53.35627 -2.27532 249 ft 15 kts 141°
2026-05-09 11:12 53.35567 -2.27451 257 ft 8 kts 141°
2026-05-09 11:12 53.35511 -2.27375 261 ft 15 kts 141°
2026-05-09 11:12 53.35414 -2.27245 260 ft 16 kts 141°
2026-05-09 11:12 53.35333 -2.27191 256 ft 9 kts 184°
2026-05-09 11:13 53.35247 -2.27217 249 ft 18 kts 191°
2026-05-09 11:13 53.35171 -2.27243 244 ft 9 kts 191°
2026-05-09 11:13 53.35152 -2.27249 243 ft 0 kts 191°
2026-05-09 11:14 53.35129 -2.27257 243 ft 7 kts 191°
2026-05-09 11:14 53.35056 -2.27283 240 ft 13 kts 192°
2026-05-09 11:14 53.34999 -2.27342 239 ft 10 kts 231°
2026-05-09 11:14 53.34944 -2.27455 239 ft 26 kts 231°
2026-05-09 11:15 53.34653 -2.28054 233 ft 104 kts 231°
2026-05-09 11:15 53.34055 -2.29285 246 ft 161 kts 229°
2026-05-09 11:15 53.33355 -2.30741 897 ft 160 kts 231°
2026-05-09 11:15 53.32657 -2.32207 1542 ft 164 kts 232°
2026-05-09 11:16 53.31943 -2.33812 1886 ft 185 kts 239°
2026-05-09 11:16 53.31321 -2.35846 2152 ft 210 kts 239°
2026-05-09 11:16 53.30175 -2.37526 2453 ft 235 kts 207°
2026-05-09 11:16 53.28627 -2.38672 2992 ft 249 kts 201°
2026-05-09 11:17 53.27009 -2.39708 3778 ft 249 kts 200°
2026-05-09 11:17 53.25385 -2.40731 4646 ft 247 kts 200°
2026-05-09 11:17 53.23794 -2.41756 5545 ft 241 kts 201°
2026-05-09 11:17 53.22245 -2.42781 6402 ft 237 kts 202°
2026-05-09 11:18 53.20715 -2.43817 7123 ft 238 kts 202°
2026-05-09 11:18 53.19181 -2.44871 7785 ft 240 kts 202°
2026-05-09 11:18 53.17632 -2.45944 8481 ft 242 kts 203°
2026-05-09 11:18 53.16073 -2.47030 9209 ft 244 kts 203°
2026-05-09 11:19 53.14499 -2.48129 9910 ft 246 kts 203°
2026-05-09 11:19 53.13446 -2.48864 10256 ft 253 kts 203°
2026-05-09 11:19 53.11753 -2.50045 10396 ft 274 kts 203°
2026-05-09 11:19 53.09930 -2.51312 10520 ft 293 kts 203°
2026-05-09 11:20 53.07997 -2.52654 10639 ft 309 kts 203°
2026-05-09 11:20 53.05985 -2.54047 10886 ft 317 kts 203°
2026-05-09 11:20 53.03963 -2.55447 11567 ft 306 kts 203°
2026-05-09 11:20 53.01481 -2.57166 13103 ft 277 kts 204°
2026-05-09 11:21 53.00304 -2.57979 13792 ft 268 kts 204°
2026-05-09 11:21 52.98595 -2.59163 14448 ft 264 kts 205°
2026-05-09 11:21 52.96921 -2.60322 15056 ft 262 kts 205°
2026-05-09 11:21 52.95261 -2.61467 15663 ft 260 kts 205°
2026-05-09 11:22 52.93584 -2.62622 16381 ft 261 kts 205°
2026-05-09 11:22 52.91848 -2.63828 16713 ft 282 kts 205°
2026-05-09 11:22 52.89965 -2.65141 16920 ft 305 kts 205°
2026-05-09 11:22 52.87961 -2.66534 17086 ft 329 kts 205°
2026-05-09 11:23 52.85786 -2.68036 17363 ft 346 kts 205°
2026-05-09 11:23 52.83540 -2.69574 17955 ft 353 kts 205°
2026-05-09 11:23 52.81255 -2.71130 18613 ft 357 kts 205°
2026-05-09 11:23 52.78968 -2.72688 19234 ft 359 kts 205°
2026-05-09 11:24 52.76650 -2.74270 19859 ft 362 kts 204°
2026-05-09 11:24 52.74317 -2.75863 20521 ft 364 kts 204°
2026-05-09 11:24 52.71891 -2.77158 21165 ft 369 kts 194°
2026-05-09 11:24 52.69326 -2.77637 21787 ft 375 kts 182°
2026-05-09 11:25 52.66712 -2.77247 22413 ft 380 kts 172°
2026-05-09 11:25 52.64091 -2.76527 22987 ft 384 kts 172°
2026-05-09 11:25 52.61469 -2.75919 23136 ft 381 kts 178°
2026-05-09 11:25 52.58877 -2.75983 23163 ft 363 kts 185°
2026-05-09 11:26 52.56397 -2.76203 23163 ft 354 kts 185°
2026-05-09 11:26 52.53952 -2.76418 23157 ft 351 kts 185°
2026-05-09 11:26 52.51514 -2.76634 23170 ft 350 kts 185°
2026-05-09 11:26 52.49079 -2.76844 23157 ft 350 kts 185°
2026-05-09 11:27 52.46641 -2.77051 23159 ft 352 kts 184°
2026-05-09 11:27 52.44196 -2.77259 23163 ft 352 kts 184°
2026-05-09 11:27 52.41748 -2.77470 23158 ft 353 kts 184°
2026-05-09 11:27 52.39297 -2.77681 23159 ft 353 kts 184°
2026-05-09 11:28 52.36845 -2.77894 23156 ft 352 kts 184°
2026-05-09 11:28 52.34397 -2.78105 23151 ft 352 kts 184°
2026-05-09 11:28 52.31948 -2.78316 23151 ft 352 kts 184°
2026-05-09 11:28 52.29500 -2.78527 23150 ft 352 kts 184°
2026-05-09 11:29 52.27053 -2.78736 23149 ft 352 kts 184°
2026-05-09 11:29 52.24606 -2.78948 23146 ft 352 kts 184°
2026-05-09 11:29 52.22159 -2.79156 23147 ft 352 kts 184°
2026-05-09 11:29 52.19712 -2.79362 23161 ft 353 kts 184°
2026-05-09 11:30 52.17256 -2.79568 23147 ft 353 kts 184°
2026-05-09 11:30 52.14803 -2.79778 23143 ft 353 kts 184°
2026-05-09 11:30 52.12351 -2.79990 23143 ft 353 kts 184°
2026-05-09 11:30 52.09900 -2.80201 23151 ft 353 kts 184°
2026-05-09 11:31 52.07450 -2.80408 23145 ft 353 kts 184°
2026-05-09 11:31 52.05001 -2.80616 23144 ft 353 kts 184°
2026-05-09 11:31 52.02551 -2.80830 23138 ft 353 kts 184°
2026-05-09 11:31 52.00103 -2.81045 23136 ft 352 kts 184°
2026-05-09 11:32 51.97661 -2.81254 23175 ft 352 kts 184°
2026-05-09 11:32 51.95215 -2.81457 23171 ft 351 kts 184°
2026-05-09 11:32 51.92775 -2.81659 23178 ft 351 kts 184°
2026-05-09 11:32 51.90466 -2.81850 23189 ft 351 kts 184°
2026-05-09 11:33 51.87951 -2.82060 23190 ft 351 kts 184°
2026-05-09 11:33 51.85516 -2.82271 23191 ft 350 kts 185°
2026-05-09 11:33 51.80678 -2.83118 23200 ft 350 kts 189°
2026-05-09 11:34 51.78269 -2.83678 23196 ft 350 kts 189°
2026-05-09 11:34 51.75860 -2.84256 23190 ft 350 kts 189°
2026-05-09 11:34 51.73457 -2.84824 23193 ft 349 kts 189°
2026-05-09 11:34 51.71057 -2.85370 23202 ft 349 kts 189°
2026-05-09 11:35 51.68650 -2.85897 23201 ft 349 kts 189°
2026-05-09 11:35 51.66244 -2.86414 23200 ft 349 kts 188°
2026-05-09 11:35 51.63838 -2.86923 23194 ft 349 kts 188°
2026-05-09 11:35 51.61510 -2.87412 23192 ft 348 kts 188°
2026-05-09 11:36 51.59107 -2.87917 23184 ft 348 kts 188°
2026-05-09 11:36 51.56776 -2.88666 23184 ft 347 kts 198°
2026-05-09 11:36 51.54538 -2.90108 23161 ft 346 kts 208°
2026-05-09 11:36 51.52531 -2.92231 23146 ft 346 kts 218°
2026-05-09 11:37 51.50650 -2.94631 23144 ft 346 kts 218°
2026-05-09 11:37 51.48933 -2.96815 23147 ft 346 kts 218°
2026-05-09 11:37 51.47046 -2.99210 23118 ft 346 kts 218°
2026-05-09 11:37 51.45419 -3.01270 23129 ft 346 kts 218°
2026-05-09 11:38 51.43630 -3.03535 23121 ft 346 kts 218°
2026-05-09 11:38 51.41739 -3.05927 23121 ft 346 kts 218°
2026-05-09 11:38 51.39912 -3.08232 23126 ft 347 kts 218°
2026-05-09 11:38 51.38016 -3.10624 23127 ft 347 kts 218°
2026-05-09 11:39 51.36126 -3.13009 23131 ft 347 kts 218°
2026-05-09 11:39 51.34233 -3.15400 23129 ft 347 kts 218°
2026-05-09 11:39 51.32451 -3.17651 23110 ft 347 kts 218°
2026-05-09 11:40 51.28679 -3.22415 23105 ft 347 kts 218°
2026-05-09 11:40 51.26849 -3.24719 23107 ft 347 kts 218°
2026-05-09 11:40 51.25010 -3.27023 23108 ft 347 kts 218°
2026-05-09 11:40 51.23179 -3.29313 23116 ft 347 kts 218°
2026-05-09 11:41 51.21367 -3.31579 23113 ft 347 kts 218°
2026-05-09 11:41 51.19466 -3.33953 23115 ft 347 kts 218°
2026-05-09 11:41 51.17732 -3.36611 23110 ft 348 kts 230°
2026-05-09 11:41 51.16412 -3.39854 23116 ft 349 kts 240°
2026-05-09 11:42 51.15287 -3.43153 23114 ft 349 kts 240°
2026-05-09 11:42 51.14103 -3.46530 23112 ft 349 kts 239°
2026-05-09 11:42 51.12910 -3.49868 23114 ft 349 kts 239°
2026-05-09 11:42 51.11703 -3.53216 23078 ft 349 kts 238°
2026-05-09 11:43 51.10498 -3.56545 22798 ft 344 kts 239°
2026-05-09 11:43 51.09317 -3.59809 22459 ft 339 kts 239°
2026-05-09 11:43 51.08147 -3.63045 22039 ft 337 kts 239°
2026-05-09 11:43 51.06985 -3.66263 21631 ft 335 kts 238°
2026-05-09 11:44 51.05860 -3.69375 21235 ft 333 kts 238°
2026-05-09 11:44 51.04709 -3.72554 20824 ft 331 kts 239°
2026-05-09 11:44 51.03559 -3.75721 20410 ft 330 kts 238°
2026-05-09 11:44 51.02413 -3.78869 20019 ft 329 kts 238°
2026-05-09 11:45 51.01269 -3.82014 19610 ft 328 kts 238°
2026-05-09 11:45 51.00127 -3.85151 19217 ft 328 kts 238°
2026-05-09 11:45 50.98987 -3.88279 18814 ft 327 kts 238°
2026-05-09 11:45 50.97847 -3.91404 18416 ft 327 kts 238°
2026-05-09 11:46 50.96712 -3.94523 17989 ft 326 kts 238°
2026-05-09 11:46 50.95580 -3.97627 17588 ft 324 kts 238°
2026-05-09 11:46 50.94454 -4.00710 17202 ft 322 kts 238°
2026-05-09 11:46 50.93328 -4.03782 16825 ft 321 kts 237°
2026-05-09 11:47 50.92211 -4.06830 16447 ft 320 kts 238°
2026-05-09 11:47 50.91111 -4.09828 16079 ft 318 kts 238°
2026-05-09 11:47 50.90000 -4.12850 15709 ft 317 kts 238°
2026-05-09 11:47 50.88889 -4.15868 15325 ft 317 kts 238°
2026-05-09 11:48 50.87779 -4.18877 14962 ft 316 kts 238°
2026-05-09 11:48 50.86668 -4.21884 14598 ft 317 kts 238°
2026-05-09 11:48 50.85553 -4.24896 14230 ft 317 kts 238°
2026-05-09 11:48 50.84438 -4.27906 13854 ft 317 kts 238°
2026-05-09 11:49 50.83323 -4.30916 13450 ft 317 kts 238°
2026-05-09 11:49 50.82211 -4.33915 13072 ft 315 kts 238°
2026-05-09 11:49 50.81101 -4.36900 12689 ft 314 kts 238°
2026-05-09 11:49 50.79996 -4.39874 12309 ft 313 kts 238°
2026-05-09 11:50 50.78896 -4.42843 11929 ft 313 kts 237°
2026-05-09 11:50 50.77793 -4.45809 11540 ft 312 kts 237°
2026-05-09 11:50 50.76692 -4.48764 11139 ft 312 kts 238°
2026-05-09 11:50 50.75607 -4.51673 10755 ft 312 kts 238°
2026-05-09 11:51 50.74504 -4.54624 10356 ft 312 kts 238°
2026-05-09 11:51 50.73400 -4.57579 9959 ft 312 kts 237°
2026-05-09 11:51 50.72315 -4.60480 9771 ft 303 kts 238°
2026-05-09 11:51 50.71248 -4.63328 9373 ft 300 kts 238°
2026-05-09 11:52 50.70188 -4.66148 8986 ft 299 kts 238°
2026-05-09 11:52 50.69128 -4.68962 8589 ft 298 kts 237°
2026-05-09 11:52 50.68091 -4.71705 8139 ft 298 kts 237°
2026-05-09 11:52 50.67032 -4.74509 7735 ft 296 kts 237°
2026-05-09 11:53 50.65982 -4.77292 7324 ft 293 kts 238°
2026-05-09 11:53 50.64948 -4.80033 6706 ft 291 kts 238°
2026-05-09 11:53 50.63917 -4.82766 6098 ft 288 kts 238°
2026-05-09 11:53 50.62947 -4.85334 5656 ft 279 kts 238°
2026-05-09 11:54 50.61968 -4.87925 5230 ft 271 kts 238°
2026-05-09 11:54 50.61075 -4.90285 4840 ft 263 kts 238°
2026-05-09 11:54 50.60151 -4.92727 4405 ft 256 kts 238°
2026-05-09 11:54 50.59254 -4.95097 4008 ft 249 kts 237°
2026-05-09 11:55 50.58377 -4.97411 3610 ft 243 kts 237°
2026-05-09 11:56 50.54423 -5.07791 3018 ft 207 kts 236°
2026-05-09 11:56 50.53697 -5.09688 2970 ft 196 kts 236°
2026-05-09 11:56 50.53016 -5.11464 2844 ft 187 kts 236°
2026-05-09 11:57 50.52190 -5.12928 2765 ft 176 kts 209°
2026-05-09 11:57 50.51083 -5.13588 2686 ft 168 kts 181°
2026-05-09 11:57 50.49950 -5.13407 2514 ft 164 kts 156°
2026-05-09 11:57 50.48998 -5.12460 2106 ft 162 kts 130°
2026-05-09 11:58 50.48386 -5.11016 1833 ft 157 kts 118°
2026-05-09 11:58 50.47834 -5.09547 1597 ft 155 kts 117°
2026-05-09 11:58 50.47306 -5.08140 1386 ft 143 kts 116°
2026-05-09 11:59 50.47066 -5.07504 1310 ft 134 kts 116°
2026-05-09 11:59 50.46608 -5.06283 1111 ft 128 kts 115°
2026-05-09 11:59 50.46157 -5.05079 937 ft 128 kts 115°
2026-05-09 12:00 50.46095 -5.04914 908 ft 128 kts 115°
2026-05-09 12:00 50.45685 -5.03822 748 ft 128 kts 116°
2026-05-09 12:00 50.45236 -5.02627 580 ft 128 kts 116°
2026-05-09 12:00 50.44782 -5.01412 411 ft 130 kts 117°
2026-05-09 12:01 50.44345 -5.00235 337 ft 112 kts 121°
2026-05-09 12:01 50.44104 -4.99608 349 ft 19 kts 121°
2026-05-09 12:01 50.44035 -4.99498 353 ft 13 kts 177°
2026-05-09 12:01 50.43939 -4.99507 351 ft 14 kts 183°
2026-05-09 12:02 50.43903 -4.99510 350 ft 1 kts 182°
2026-05-09 12:02 50.43888 -4.99516 355 ft 4 kts 206°
2026-05-09 12:02 50.43893 -4.99571 357 ft 8 kts 300°
2026-05-09 12:02 50.43932 -4.99677 348 ft 15 kts 300°
2026-05-09 12:03 50.44000 -4.99859 346 ft 22 kts 300°
2026-05-09 12:03 50.44079 -5.00071 336 ft 24 kts 300°
2026-05-09 12:03 50.44140 -5.00215 338 ft 24 kts 309°
2026-05-09 12:03 50.44252 -5.00416 337 ft 25 kts 310°
2026-05-09 12:04 50.44313 -5.00542 332 ft 3 kts 317°
2026-05-09 12:04 50.44338 -5.00522 331 ft 5 kts 55°
2026-05-09 12:04 50.44359 -5.00449 334 ft 10 kts 66°
2026-05-09 12:04 50.44397 -5.00315 335 ft 16 kts 65°
2026-05-09 12:05 50.44443 -5.00150 338 ft 12 kts 69°
2026-05-09 12:05 50.44484 -5.00086 346 ft 8 kts 346°
2026-05-09 12:05 50.44521 -5.00169 337 ft 11 kts 300°
2026-05-09 12:05 50.44560 -5.00275 335 ft 15 kts 300°
2026-05-09 12:06 50.44565 -5.00289 335 ft 15 kts 300°
2026-05-09 12:06 50.44602 -5.00387 332 ft 6 kts 300°
2026-05-09 12:06 50.44617 -5.00427 331 ft 5 kts 300°
2026-05-09 12:07 50.44631 -5.00443 331 ft 0 kts 338°
2026-05-09 12:07 50.44635 -5.00443 332 ft 2 kts 348°
2026-05-09 12:07 50.44642 -5.00439 334 ft 0 kts 20°
2026-05-09 12:07 50.44645 -5.00434 334 ft 1 kts 41°
2026-05-09 12:08 50.44653 -5.00408 334 ft 2 kts 66°
2026-05-09 12:08 50.44656 -5.00383 332 ft 0 kts 82°